Change the Weather History Date:

Tuesday, October 23, 2012

  Actual Average Record
Temperature  
Mean Temperature 71 °F 68 °F  
Max Temperature 82 °F 79 °F 88 °F (1981)
Min Temperature 60 °F 58 °F 40 °F (1976)
Degree Days  
Heating Degree Days 0 1  
Month to date heating degree days 2 11  
Since 1 July heating degree days 2 11  
Cooling Degree Days 6 5  
Month to date cooling degree days 186 166  
Year to date cooling degree days 2698 2552  
Growing Degree Days 21 (Base 50)    
Moisture  
Dew Point 62 °F    
Average Humidity 75    
Maximum Humidity 100    
Minimum Humidity 49    
Precipitation  
Precipitation 0.00 in 0.08 in 3.60 in (1938)
Month to date precipitation 3.01 3.32  
Year to date precipitation 50.83 46.87  
Snow  
Snow 0.00 in 0.00 in 0.00 in (2002)
Month to date snowfall 0.0 0.0  
Since 1 July snowfall 0.0 0.0  
Since 1 September snowfall 0.0 0.0  
Snow Depth 0.00 in    
Sea Level Pressure  
Sea Level Pressure 30.09 in    
Wind  
Wind Speed 8 mph (NNE)    
Max Wind Speed 18 mph    
Max Gust Speed 24 mph    
Visibility 9 miles    
Events      
T = Trace of Precipitation, MM = Missing Value Source: NWS Daily Summary

Daily Weather History Graph

Daily Weather History Graph

Search for Another Location

Airport or City:

Trip Planner

Search our weather history database for the weather conditions in past years. The results will help you decide how hot, cold, wet, or windy it might be!

Date:

Astronomy

Oct. 23, 2012 Rise Set
Actual Time 7:34 AM EDT 6:46 PM EDT
Civil Twilight 7:10 AM EDT 7:11 PM EDT
Nautical Twilight 6:42 AM EDT 7:39 PM EDT
Astronomical Twilight 6:14 AM EDT 8:07 PM EDT
Moon 3:07 PM EDT (10/23) 1:49 AM EDT (10/23)
Length of Visible Light 12h 00m
Length of Day
11h 11m
Waxing Gibbous, 66% of the Moon is Illuminated
Oct 23
Waxing Gibbous
Oct 29
Full
Nov 6
Last Quarter
Nov 13
New
Nov 20
First Quarter

Hourly Weather History & Observations

Time (EDT) Temp. Heat Index Dew Point Humidity Pressure Visibility Wind Dir Wind Speed Gust Speed Precip Events Conditions
12:56 AM 60.1 °F - 57.0 °F 90% 30.13 in 10.0 mi Calm Calm - N/A   Clear
1:56 AM 60.1 °F - 57.9 °F 93% 30.11 in 10.0 mi North 4.6 mph - N/A   Clear
2:56 AM 60.1 °F - 57.9 °F 93% 30.10 in 10.0 mi Calm Calm - N/A   Partly Cloudy
3:56 AM 62.1 °F - 59.0 °F 90% 30.08 in 10.0 mi North 3.5 mph - N/A   Partly Cloudy
4:56 AM 62.1 °F - 59.0 °F 90% 30.07 in 10.0 mi Calm Calm - N/A   Partly Cloudy
5:56 AM 62.6 °F - 60.8 °F 94% 30.07 in 9.0 mi NNE 4.6 mph - N/A   Partly Cloudy
6:56 AM 62.1 °F - 60.1 °F 93% 30.09 in 8.0 mi North 5.8 mph - N/A   Partly Cloudy
7:56 AM 62.1 °F - 60.1 °F 93% 30.11 in 6.0 mi North 4.6 mph - N/A   Scattered Clouds
8:56 AM 66.2 °F - 62.6 °F 88% 30.12 in 10.0 mi North 4.6 mph - N/A   Partly Cloudy
11:56 AM 80.1 °F 80.7 °F 59.0 °F 48% 30.13 in 10.0 mi ENE 13.8 mph 18.4 mph N/A   Scattered Clouds
12:56 PM 81.0 °F 81.3 °F 59.0 °F 47% 30.11 in 10.0 mi East 15.0 mph - N/A   Scattered Clouds
1:56 PM 79.0 °F - 59.0 °F 50% 30.09 in 10.0 mi ENE 13.8 mph 23.0 mph N/A   Scattered Clouds
2:56 PM 81.0 °F 81.3 °F 59.0 °F 47% 30.07 in 10.0 mi NE 13.8 mph - N/A   Scattered Clouds
3:56 PM 79.0 °F - 64.0 °F 60% 30.07 in 10.0 mi ENE 15.0 mph 21.9 mph N/A   Scattered Clouds
4:56 PM 79.0 °F - 64.9 °F 62% 30.07 in 10.0 mi NE 15.0 mph - N/A   Scattered Clouds
5:56 PM 75.0 °F - 64.9 °F 71% 30.08 in 10.0 mi NE 11.5 mph - N/A   Scattered Clouds
6:56 PM 72.0 °F - 66.0 °F 81% 30.08 in 10.0 mi NNE 8.1 mph - N/A   Scattered Clouds
7:56 PM 71.1 °F - 66.9 °F 87% 30.09 in 10.0 mi NNE 6.9 mph - N/A   Scattered Clouds
8:56 PM 69.1 °F - 66.0 °F 90% 30.10 in 10.0 mi North 6.9 mph - N/A   Partly Cloudy
9:56 PM 68.0 °F - 64.9 °F 90% 30.10 in 9.0 mi North 4.6 mph - N/A   Partly Cloudy
10:56 PM 66.9 °F - 66.0 °F 97% 30.11 in 8.0 mi North 4.6 mph - N/A   Partly Cloudy
11:56 PM 68.0 °F - 66.0 °F 93% 30.10 in 8.0 mi North 5.8 mph - N/A   Scattered Clouds